Location: Bun Machan
(52.1403°N, 7.3744°W)
Time: 02:40:16
(UTC+00:00)

Abrixas rocket - Pass Details

Date: 14 July 2020
Orbit: 339 x 347 km, 48.4° (Epoch: 04 August)

Event Time Altitude Azimuth Distance (km) Brightness Sun altitude
Exits shadow 03:04:24 - 260° (W) 1,454 4.6 -9.4°
Reaches altitude 10° 03:04:52 10° 256° (WSW) 1,286 4.3 -9.4°
Maximum altitude 03:07:16 24° 199° (SSW) 756 3.0 -9.2°
Drops below altitude 10° 03:09:39 10° 142° (SE) 1,281 4.5 -8.9°
Sets 03:11:51 0° 128° (SE) 2,118 5.8 -8.7°
